Regional Weather Roundup
Issued by NWS Bismarck, ND

Home | Current Version | Previous Version | Text Only | Print | Product List | Glossary On
Versions: 1 2 3 4 5 6 7 8 9 10 11 12 13 14 15 16 17 18 19 20 21 22 23 24 25 26 27 28 29 30 31 32 33 34 35 36 37 38 39 40 41 42 43 44 45 46 47 48 49 50
000
ASUS43 KBIS 280410
RWRBIS

NWR BROADCAST TEXT
NATIONAL WEATHER SERVICE BISMARCK ND
1100 PM CDT SAT MAY 27 2017

NOTE: "FAIR" INDICATES FEW OR NO CLOUDS BELOW 12,000 FEET WITH NO
SIGNIFICANT WEATHER AND/OR OBSTRUCTIONS TO VISIBILITY.


CITY           SKY/WX    TMP DP  RH WIND       PRES   REMARKS
WILLISTON      FAIR      54  35  48 NW9       29.89R
MINOT          FAIR      51  43  74 CALM      29.83R
MINOT AFB      FAIR      48  47  94 W5        29.82R
BISMARCK       FAIR      54  45  71 CALM      29.87R
DICKINSON      FAIR      51  39  63 W10       29.89R
GARRISON         N/A     48  41  76 CALM      29.84S
HETTINGER ARPT FAIR      48  36  63 NW5       29.95R
JAMESTOWN      FAIR      51  46  83 W10       29.80S
HAZEN          FAIR      45  41  87 SE5       29.87S
LINTON         FAIR      48  48 100 SW7       29.89S
MANDAN         FAIR      52  45  76 SW6       29.87S
STANLEY        FAIR      55  41  58 NW12      29.88S
TIOGA          FAIR      55  37  50 N12       29.89R
WATFORD CITY   FAIR      57  36  44 NW6       29.89R
$$

CITY           SKY/WX    TMP DP  RH WIND       PRES   REMARKS
GRAND FORKS    FAIR      52  49  89 NW10      29.73R
GRAND FORKS AF MOCLDY    51  47  87 N10G18    29.74S
DEVILS LAKE    FAIR      50  45  83 NW3       29.80S
FARGO          LGT RAIN  58  47  66 NW8       29.75F
CAVALIER       LGT RAIN  52  50  93 W13       29.74S
GRAFTON        DRIZZLE   52  52 100 NW20      29.75F
GWINNER        CLEAR     54  50  87 MISG      29.79F
LANGDON        MOCLDY    50  50 100 W8        29.77S
ROLLA          FAIR      50  41  71 W7        29.80S
$$

CITY           SKY/WX    TMP DP  RH WIND       PRES   REMARKS
ABERDEEN       MOCLDY    56  48  74 NW7       29.83F
MOBRIDGE       FAIR      52  47  83 N5        29.88S
BUFFALO          N/A     55  45  68 W10       29.93S
RAPID CITY     FAIR      58  39  49 W9        30.04F
GLASGOW        FAIR      61  38  42 NW8       29.97R
SIDNEY         FAIR      55  39  54 W13       29.91R
WOLF POINT     FAIR      63  37  38 NW9       29.94R
GLENDIVE       CLOUDY    65  37  35 NW10      29.95R
MILES CITY     FAIR      62  34  35 W8        29.99S
BAKER          FAIR      52  39  61 W8        29.98S
$$

CITY           SKY/WX    TMP DP  RH WIND       PRES   REMARKS
BILLINGS       MOCLDY    64  38  38 W10       30.11R
GREAT FALLS    CLOUDY    63  40  42 S3        30.11R
ESTEVAN        PTCLDY    52  45  76 N6        29.87R
$$





USA.gov is the U.S. government's official web portal to all federal, state and local government web resources and services.